Total_Precipitation_Accumulation
0.00 0.00 0.00 0.00 0.00 0.00 0.00 0.00 0.00 0.00 0.00 0.00 0.00 0.00 0.00 0.00 0.00 0.01 0.02 0.03 0.06 0.12 0.16 0.24 0.26 0.29 0.33 0.24 0.18 0.17 0.19 0.25 0.31 0.38 0.41 0.49 0.69 0.85 0.99 1.19 1.40 1.53 1.46 1.39
0.00 0.00 0.00 0.00 0.00 0.00 0.00 0.00 0.00 0.00 0.00 0.00 0.00 0.01 0.01 0.01 0.02 0.04 0.05 0.03 0.06 0.14 0.21 0.32 0.34 0.36 0.36 0.30 0.28 0.30 0.36 0.52 0.70 0.96 1.20 1.44 1.67 1.76 1.92 2.09 2.17 2.11 1.95 1.84
0.00 0.00 0.00 0.00 0.00 0.00 0.00 0.00 0.00 0.00 0.00 0.00 0.00 0.02 0.03 0.03 0.03 0.06 0.06 0.05 0.08 0.15 0.23 0.32 0.33 0.36 0.39 0.44 0.45 0.50 0.68 1.03 1.42 1.68 1.92 2.31 2.63 2.67 2.65 2.59 2.51 2.43 2.32 2.19
0.00 0.00 0.00 0.00 0.00 0.00 0.00 0.00 0.00 0.00 0.00 0.00 0.00 0.04 0.05 0.04 0.03 0.04 0.06 0.07 0.11 0.18 0.19 0.22 0.26 0.33 0.38 0.52 0.61 0.69 1.03 1.59 2.02 2.30 2.71 3.12 3.34 3.47 3.48 3.18 2.83 2.49 2.21 2.00
0.00 0.00 0.00 0.00 0.00 0.00 0.00 0.00 0.00 0.00 0.00 0.00 0.00 0.04 0.11 0.07 0.06 0.06 0.06 0.07 0.10 0.14 0.19 0.14 0.19 0.30 0.39 0.55 0.74 0.92 1.27 1.72 2.21 2.78 3.30 3.61 3.77 3.78 3.51 3.01 2.50 2.17 1.97 1.74
0.00 0.00 0.00 0.00 0.00 0.00 0.00 0.00 0.00 0.00 0.00 0.00 0.00 0.03 0.17 0.23 0.16 0.12 0.10 0.10 0.12 0.12 0.18 0.21 0.26 0.37 0.50 0.66 0.82 1.02 1.28 1.64 2.15 2.64 3.04 3.09 3.17 3.12 2.79 2.43 2.19 1.99 1.70 1.39
0.00 0.00 0.00 0.00 0.00 0.00 0.00 0.00 0.00 0.00 0.00 0.00 0.00 0.06 0.26 0.36 0.25 0.19 0.13 0.11 0.13 0.13 0.16 0.26 0.42 0.42 0.60 0.72 0.86 1.09 1.36 1.71 2.02 2.35 2.62 2.66 2.65 2.56 2.34 2.05 1.74 1.46 1.19 0.93
0.01 0.01 0.00 0.00 0.00 0.00 0.00 0.00 0.00 0.00 0.00 0.00 0.02 0.11 0.24 0.27 0.18 0.13 0.10 0.09 0.11 0.15 0.22 0.33 0.44 0.54 0.69 0.82 0.96 1.19 1.44 1.70 1.80 1.88 2.01 2.04 2.02 1.93 1.81 1.50 1.21 1.02 0.84 0.66
0.05 0.03 0.01 0.00 0.00 0.00 0.00 0.00 0.00 0.00 0.00 0.02 0.09 0.18 0.26 0.22 0.15 0.11 0.10 0.10 0.15 0.21 0.28 0.37 0.47 0.58 0.71 0.87 1.02 1.18 1.30 1.43 1.52 1.53 1.51 1.50 1.47 1.38 1.26 1.06 0.88 0.72 0.55 0.42
0.04 0.07 0.02 0.00 0.00 0.00 0.00 0.00 0.00 0.00 0.00 0.05 0.15 0.21 0.25 0.24 0.19 0.14 0.13 0.14 0.20 0.27 0.31 0.38 0.47 0.53 0.57 0.61 0.72 0.81 0.88 0.95 1.00 1.01 1.00 0.99 0.95 0.86 0.74 0.64 0.53 0.43 0.34 0.27
0.05 0.09 0.04 0.01 0.00 0.00 0.00 0.00 0.00 0.00 0.00 0.03 0.15 0.39 0.44 0.45 0.36 0.23 0.20 0.20 0.24 0.29 0.32 0.35 0.40 0.42 0.45 0.46 0.53 0.58 0.64 0.67 0.67 0.65 0.61 0.55 0.51 0.45 0.41 0.37 0.32 0.29 0.26 0.23
0.06 0.10 0.09 0.03 0.01 0.00 0.00 0.00 0.00 0.00 0.00 0.01 0.14 0.58 0.71 0.66 0.57 0.38 0.29 0.28 0.32 0.34 0.37 0.36 0.33 0.32 0.33 0.33 0.34 0.36 0.37 0.38 0.40 0.37 0.33 0.32 0.32 0.29 0.26 0.26 0.24 0.22 0.22 0.21
0.04 0.09 0.16 0.14 0.08 0.02 0.01 0.00 0.00 0.00 0.00 0.02 0.13 0.67 0.87 0.70 0.59 0.47 0.40 0.48 0.58 0.56 0.47 0.37 0.28 0.23 0.23 0.26 0.29 0.30 0.29 0.28 0.28 0.25 0.23 0.25 0.26 0.26 0.25 0.23 0.22 0.20 0.18 0.16
0.03 0.09 0.21 0.37 0.27 0.11 0.05 0.02 0.01 0.01 0.02 0.06 0.19 0.47 0.61 0.62 0.62 0.69 0.84 0.96 0.90 0.71 0.53 0.39 0.30 0.26 0.27 0.30 0.29 0.26 0.25 0.23 0.21 0.22 0.22 0.23 0.22 0.22 0.21 0.19 0.17 0.15 0.14 0.13
0.06 0.14 0.13 0.14 0.14 0.12 0.10 0.06 0.05 0.06 0.07 0.19 0.39 0.55 0.72 0.89 0.99 1.00 1.07 0.97 0.79 0.67 0.58 0.49 0.41 0.37 0.34 0.31 0.28 0.26 0.27 0.25 0.22 0.21 0.20 0.19 0.18 0.17 0.16 0.15 0.14 0.12 0.11 0.09
0.04 0.09 0.09 0.09 0.09 0.11 0.11 0.10 0.11 0.14 0.21 0.35 0.54 0.77 1.03 1.10 1.10 1.12 1.15 1.05 0.88 0.71 0.58 0.55 0.52 0.48 0.42 0.36 0.31 0.28 0.26 0.25 0.23 0.19 0.18 0.17 0.16 0.15 0.13 0.11 0.09 0.08 0.06 0.05
0.03 0.05 0.09 0.10 0.09 0.14 0.24 0.20 0.22 0.26 0.32 0.43 0.61 0.79 0.95 1.03 1.03 1.07 1.13 1.16 1.06 0.86 0.76 0.75 0.76 0.72 0.62 0.52 0.43 0.38 0.34 0.29 0.25 0.24 0.24 0.22 0.18 0.15 0.11 0.07 0.06 0.04 0.03 0.03
0.03 0.05 0.07 0.08 0.14 0.26 0.31 0.17 0.21 0.28 0.33 0.40 0.45 0.58 0.71 0.79 0.83 0.90 0.99 1.06 1.05 0.98 0.98 1.01 0.95 0.86 0.76 0.65 0.56 0.48 0.42 0.37 0.34 0.31 0.26 0.20 0.14 0.09 0.07 0.05 0.05 0.04 0.03 0.03
0.02 0.05 0.07 0.10 0.21 0.34 0.33 0.18 0.16 0.30 0.38 0.37 0.39 0.42 0.44 0.45 0.50 0.66 0.80 0.83 0.84 0.90 0.94 0.93 0.87 0.81 0.74 0.63 0.54 0.46 0.40 0.34 0.28 0.22 0.16 0.11 0.08 0.06 0.06 0.06 0.05 0.04 0.04 0.03
0.02 0.04 0.10 0.13 0.22 0.37 0.36 0.14 0.09 0.25 0.50 0.43 0.38 0.39 0.41 0.47 0.47 0.44 0.50 0.56 0.62 0.65 0.68 0.72 0.71 0.66 0.61 0.52 0.40 0.34 0.28 0.23 0.17 0.11 0.07 0.05 0.04 0.04 0.04 0.04 0.04 0.03 0.03 0.04
0.08 0.10 0.15 0.20 0.29 0.36 0.14 0.06 0.17 0.45 0.61 0.55 0.49 0.44 0.43 0.44 0.40 0.32 0.33 0.37 0.42 0.46 0.51 0.55 0.57 0.53 0.44 0.33 0.25 0.22 0.18 0.14 0.10 0.06 0.05 0.04 0.03 0.03 0.03 0.04 0.04 0.04 0.05 0.06
0.14 0.19 0.21 0.27 0.37 0.40 0.13 0.09 0.26 0.36 0.37 0.43 0.42 0.37 0.30 0.21 0.18 0.22 0.23 0.24 0.24 0.28 0.36 0.39 0.36 0.29 0.23 0.18 0.16 0.15 0.12 0.09 0.06 0.06 0.06 0.05 0.03 0.03 0.03 0.05 0.06 0.05 0.06 0.07
0.07 0.10 0.16 0.26 0.35 0.28 0.11 0.12 0.17 0.19 0.26 0.26 0.24 0.22 0.15 0.09 0.10 0.12 0.14 0.16 0.18 0.19 0.22 0.22 0.18 0.14 0.13 0.13 0.13 0.12 0.10 0.07 0.07 0.07 0.07 0.04 0.02 0.03 0.03 0.03 0.05 0.05 0.07 0.07
0.06 0.02 0.03 0.09 0.19 0.15 0.10 0.08 0.10 0.13 0.17 0.16 0.18 0.22 0.14 0.07 0.06 0.08 0.09 0.10 0.11 0.11 0.12 0.12 0.11 0.10 0.11 0.10 0.10 0.09 0.07 0.07 0.08 0.09 0.07 0.05 0.04 0.05 0.04 0.03 0.02 0.04 0.05 0.05
0.04 0.02 0.02 0.05 0.10 0.12 0.12 0.09 0.06 0.08 0.10 0.12 0.17 0.24 0.20 0.10 0.08 0.07 0.09 0.10 0.10 0.10 0.11 0.11 0.11 0.11 0.08 0.07 0.06 0.05 0.05 0.07 0.09 0.08 0.06 0.06 0.06 0.06 0.06 0.07 0.04 0.03 0.03 0.01
0.02 0.02 0.06 0.10 0.11 0.14 0.14 0.10 0.06 0.12 0.17 0.20 0.25 0.30 0.22 0.13 0.09 0.08 0.09 0.09 0.10 0.10 0.10 0.10 0.09 0.07 0.05 0.03 0.03 0.03 0.03 0.04 0.06 0.07 0.05 0.04 0.05 0.05 0.06 0.10 0.10 0.04 0.01 0.01